Total_Precipitation_Accumulation
0.00 0.00 0.00 0.00 0.00 0.00 0.00 0.00 0.00 0.00 0.01 0.00 0.00 0.01 0.02 0.02 0.05 0.04 0.06 0.08 0.03 0.01 0.03 0.06 0.16 0.16 0.13 0.10 0.22 0.56 1.09 1.55 0.99 0.78 0.58 0.68 0.71 0.89 0.91 1.77 2.35 2.63 2.49 2.80
0.02 0.01 0.00 0.00 0.00 0.00 0.00 0.00 0.00 0.00 0.00 0.00 0.00 0.00 0.00 0.05 0.02 0.01 0.01 0.12 0.04 0.02 0.05 0.03 0.07 0.06 0.08 0.15 0.47 0.58 0.70 0.93 0.90 0.72 0.66 0.57 0.62 0.89 0.87 1.18 1.70 2.20 2.62 2.64
0.02 0.01 0.00 0.01 0.00 0.00 0.00 0.00 0.00 0.00 0.00 0.00 0.00 0.04 0.02 0.02 0.05 0.08 0.04 0.03 0.01 0.01 0.02 0.03 0.03 0.04 0.04 0.05 0.31 0.39 0.55 0.74 0.76 0.79 1.18 1.26 1.32 1.33 1.30 0.98 1.00 1.35 1.98 2.45
0.07 0.00 0.02 0.00 0.00 0.01 0.00 0.00 0.00 0.00 0.00 0.01 0.01 0.20 0.10 0.08 0.06 0.02 0.08 0.06 0.03 0.03 0.02 0.00 0.00 0.01 0.02 0.13 0.57 0.51 0.55 0.65 0.81 0.88 1.03 1.27 1.20 0.84 0.74 0.82 0.85 1.07 1.32 1.82
0.10 0.03 0.04 0.02 0.01 0.01 0.02 0.00 0.00 0.00 0.00 0.09 0.06 0.12 0.18 0.09 0.06 0.02 0.09 0.15 0.12 0.05 0.03 0.02 0.02 0.02 0.04 0.18 0.59 0.70 0.77 0.92 0.93 1.00 1.10 1.18 1.20 1.01 0.78 0.84 1.00 1.12 1.25 1.26
0.02 0.02 0.07 0.06 0.01 0.00 0.00 0.02 0.00 0.00 0.06 0.30 0.07 0.13 0.36 0.29 0.23 0.12 0.17 0.17 0.16 0.09 0.10 0.07 0.09 0.12 0.11 0.22 0.56 0.88 1.02 0.92 0.98 1.12 1.23 1.09 1.01 1.18 1.24 1.12 1.11 1.21 1.27 1.43
0.01 0.04 0.06 0.11 0.16 0.03 0.03 0.15 0.29 0.26 0.31 0.39 0.28 0.34 0.76 0.37 0.32 0.45 0.39 0.16 0.09 0.07 0.15 0.41 0.28 0.21 0.22 0.24 0.41 0.82 1.31 1.38 1.18 1.30 1.42 1.46 1.50 1.56 1.53 1.43 1.40 1.45 1.41 1.65
0.11 0.16 0.18 0.23 0.41 0.41 0.08 0.30 0.78 0.91 0.55 0.54 0.53 0.84 0.96 0.69 0.52 0.51 0.35 0.26 0.22 0.26 0.31 0.48 0.83 0.36 0.31 0.49 0.48 0.78 1.61 2.19 2.19 1.89 1.80 1.88 1.65 1.81 1.86 1.71 1.65 1.66 1.62 1.68
0.24 0.22 0.12 0.22 0.29 0.31 0.31 0.33 0.29 1.10 0.63 0.53 0.63 0.82 1.12 1.12 0.84 1.25 1.36 0.83 0.70 0.61 0.60 0.60 0.58 0.79 0.58 0.58 0.75 1.07 1.39 1.63 2.31 1.81 1.43 1.61 1.80 1.99 2.21 2.04 1.68 1.49 1.40 1.43
0.13 0.29 0.09 0.06 0.15 0.15 0.24 0.30 0.76 1.50 1.55 0.96 0.73 0.61 0.97 0.87 0.85 0.86 0.75 0.59 0.43 0.33 0.28 0.37 0.46 0.89 1.70 1.61 1.32 1.73 2.01 1.74 1.78 1.85 1.69 1.58 1.73 1.74 1.72 1.60 1.47 1.21 1.20 1.26
0.12 0.31 0.20 0.22 0.48 0.35 0.27 0.50 0.75 1.00 0.90 1.21 1.07 1.36 1.56 1.12 1.16 0.83 0.33 0.26 0.25 0.26 0.28 0.26 0.24 0.36 0.59 1.81 2.27 1.94 2.34 2.67 2.64 2.31 2.16 2.04 1.89 2.31 2.45 2.16 1.79 1.83 1.51 1.41
0.35 0.37 0.22 0.19 0.35 0.27 0.37 0.56 0.86 1.51 0.97 0.83 1.21 1.77 1.32 1.27 0.76 0.90 0.58 0.38 0.19 0.22 0.33 0.28 0.25 0.30 0.30 0.50 1.17 2.03 2.32 2.33 2.42 2.43 2.98 3.43 3.05 2.65 2.84 3.10 2.86 2.79 2.86 2.40
0.73 1.05 0.80 0.44 0.49 0.42 0.47 0.55 0.75 1.13 1.67 1.43 1.56 1.54 1.24 1.15 1.24 1.25 0.83 0.50 0.28 0.37 0.50 0.47 0.41 0.47 0.47 0.46 0.50 0.79 1.45 2.16 2.95 3.63 3.25 3.82 3.96 3.90 3.14 2.89 2.96 2.82 2.80 3.42
1.09 1.22 1.08 0.90 0.96 0.93 0.92 0.52 0.55 1.67 2.74 1.89 1.00 0.80 1.50 1.68 1.98 1.15 0.71 0.76 0.62 0.61 0.67 0.61 0.71 0.94 0.98 0.95 0.92 0.87 1.07 1.57 2.42 3.52 4.32 4.57 4.59 5.01 5.11 4.69 3.61 2.67 2.48 2.41
1.33 1.72 1.06 0.70 0.33 0.52 0.91 0.69 0.54 1.20 1.57 2.20 1.25 1.20 1.34 1.51 2.01 1.75 1.14 0.99 0.85 0.81 0.72 0.72 0.83 1.06 1.15 1.29 1.14 1.09 1.18 1.31 1.60 2.09 2.60 3.07 3.61 4.18 4.99 4.49 4.80 4.52 3.81 3.75
1.56 2.04 1.52 1.24 0.81 0.99 0.91 0.58 0.46 0.62 0.94 1.08 0.91 1.24 1.35 0.99 1.14 1.42 1.27 1.22 1.14 1.00 0.94 0.81 0.81 0.88 0.94 1.12 1.22 1.15 1.34 1.57 1.58 1.68 2.06 3.03 2.83 2.88 2.76 3.39 3.47 3.66 3.39 3.69
1.58 1.75 1.92 1.91 0.97 1.33 2.13 0.82 0.55 0.72 1.14 1.28 1.79 1.63 1.31 0.96 1.14 1.23 1.38 1.22 1.51 1.25 1.02 0.96 0.85 0.91 0.96 1.12 1.28 1.43 1.73 2.09 2.30 2.40 2.50 2.64 2.95 3.08 3.10 2.86 3.06 3.18 3.21 2.87
1.51 1.66 2.33 2.04 1.47 2.97 1.47 0.30 0.55 0.81 0.76 0.97 1.10 1.25 1.58 1.28 1.09 0.84 0.98 1.30 1.65 1.95 1.27 1.02 1.03 0.94 1.05 1.10 1.10 1.33 1.60 1.92 2.28 2.83 3.08 3.24 3.25 3.20 2.94 3.23 3.30 3.18 3.43 3.27
0.65 1.31 2.66 2.49 1.93 1.39 0.80 0.72 0.82 0.89 0.85 0.65 0.71 1.02 1.34 1.08 0.66 0.61 0.72 0.96 1.32 1.74 1.91 1.41 1.19 1.10 1.07 1.06 1.25 1.28 1.48 1.74 1.93 2.35 2.96 3.43 3.36 3.34 3.06 3.18 3.63 3.41 3.48 3.70
0.50 0.94 2.65 2.98 2.75 1.90 1.12 0.37 0.33 0.75 1.36 0.61 0.46 0.72 1.01 1.19 1.30 1.27 1.10 0.89 0.89 1.11 1.35 1.73 1.47 0.93 0.80 0.88 0.87 1.10 1.25 1.39 1.92 2.39 2.56 2.78 3.12 3.27 3.82 3.96 3.75 4.00 3.65 3.71
1.11 1.74 2.36 2.14 3.17 1.74 0.49 0.44 0.47 1.20 1.54 0.61 0.47 0.62 1.04 1.54 1.69 1.76 1.37 1.23 1.05 1.05 0.99 0.94 1.21 1.32 0.99 0.82 0.75 0.78 1.09 1.41 1.74 1.86 2.35 2.60 2.68 2.92 3.13 3.40 3.59 3.35 3.61 3.47
1.02 2.03 2.40 2.43 3.09 2.20 0.59 0.73 1.03 1.32 0.80 0.51 0.49 0.73 0.84 1.47 1.63 1.61 1.28 1.02 0.79 0.71 0.57 0.45 0.44 0.61 0.89 0.85 0.79 0.77 0.74 1.00 1.04 1.29 1.53 1.74 2.33 2.67 2.89 2.88 3.18 3.18 3.23 3.36
1.88 1.61 1.94 1.74 1.47 0.93 0.66 0.76 0.61 0.51 0.43 0.54 0.65 1.11 1.01 1.21 1.61 1.65 1.27 0.93 0.73 0.57 0.43 0.31 0.25 0.29 0.35 0.37 0.52 0.73 0.89 0.72 0.78 0.80 0.94 1.26 1.28 1.64 2.16 2.53 2.98 3.25 2.98 2.72
1.02 0.75 1.33 1.22 0.69 0.49 0.65 0.44 0.34 0.30 0.35 0.43 0.81 1.17 1.61 1.54 1.49 1.29 0.91 0.67 0.50 0.38 0.32 0.25 0.31 0.29 0.26 0.24 0.31 0.44 0.57 0.68 0.74 0.79 0.78 0.86 1.05 1.24 1.23 1.53 2.02 2.43 2.93 3.07
1.26 1.00 0.93 1.07 1.09 0.77 0.54 0.54 0.63 0.53 0.39 0.41 0.55 0.72 0.73 0.69 0.68 0.60 0.52 0.44 0.35 0.30 0.26 0.17 0.18 0.21 0.23 0.15 0.20 0.29 0.32 0.33 0.40 0.46 0.54 0.63 0.76 0.95 0.96 1.23 1.49 1.59 2.14 2.42
1.20 1.49 1.19 1.40 1.71 1.47 0.94 0.57 0.57 0.62 0.64 0.51 0.46 0.62 0.64 0.45 0.51 0.45 0.48 0.44 0.42 0.42 0.31 0.23 0.17 0.15 0.19 0.21 0.28 0.32 0.33 0.36 0.44 0.52 0.56 0.72 0.74 0.83 0.96 1.06 1.49 1.93 1.95 2.17